Location: Exeidioux
(45.6312°N, 1.6819°E)
Time: 13:47:56
(UTC+00:00)

Meteor 1-20 Rocket - Pass Details

Date: 03 March 2021
Orbit: 820 x 891 km, 81.2° (Epoch: 11 April)

Event Time Altitude Azimuth Distance (km) Brightness Sun altitude
Rises 18:06:41 0° 180° (S) 3,338 7.4 -4.9°
Reaches altitude 10° 18:09:05 10° 178° (S) 2,409 6.6 -5.4°
Maximum altitude 18:14:28 67° 97° (E) 891 4.1 -6.3°
Drops below altitude 10° 18:19:55 10° 16° (NNE) 2,442 6.4 -7.2°
Sets 18:22:21 0° 14° (NNE) 3,387 7.2 -7.7°
